Wind_Speed
3 3 4 3 4 4 4 4 4 5 6 7 7 8 8 8 9 8 9 9 9 9 8 8 7 6 6 7 7 7 6 7 6 6 6 6 6 6 6 7 7 7 7
4 4 4 4 4 4 5 5 4 5 7 7 7 8 8 9 9 9 9 10 10 9 9 8 8 8 7 7 8 8 7 7 7 7 7 7 7 7 7 7 8 8 8
4 4 4 4 5 6 6 6 6 7 8 9 9 9 9 9 9 9 9 9 10 10 10 10 10 10 9 9 9 9 9 9 8 8 8 8 8 8 8 9 9 9 10
4 4 5 5 6 7 7 8 7 8 8 9 9 9 10 10 9 9 10 10 11 11 12 11 11 11 11 11 11 11 11 11 11 11 10 10 10 9 9 10 10 11 10
6 5 6 6 6 7 8 8 8 9 9 9 10 10 10 10 11 10 11 11 11 12 12 12 12 12 13 12 12 13 13 13 13 13 12 12 12 12 11 11 11 12 12
7 6 6 7 7 7 8 9 9 10 11 11 11 11 11 11 12 12 12 12 12 13 13 13 13 14 14 14 13 14 15 15 15 15 15 15 14 14 13 13 13 13 13
8 7 7 8 8 8 10 11 10 11 11 11 12 12 12 12 13 13 13 14 13 14 14 14 14 14 14 15 15 15 16 16 16 16 17 17 17 16 15 15 14 14 14
8 9 8 9 9 9 10 11 10 11 12 12 12 13 14 14 14 14 14 14 14 14 15 15 16 16 16 16 17 17 17 17 18 18 18 18 18 18 17 16 15 15 15
10 11 10 10 10 10 11 10 10 11 12 13 13 13 14 15 16 16 16 16 16 17 17 17 17 17 17 18 17 18 18 18 18 18 19 20 19 19 18 18 17 17 17
11 12 11 11 11 11 12 12 11 11 12 13 13 14 15 15 16 16 17 18 18 18 18 19 19 19 19 19 18 18 18 18 18 18 18 19 19 19 19 19 19 19 18
12 13 13 12 12 13 13 13 12 12 12 13 14 14 15 15 16 17 18 19 20 20 20 20 20 21 21 21 20 20 19 19 19 19 19 19 20 20 20 20 21 20 19
14 14 14 14 15 14 14 15 14 13 14 14 15 15 15 16 16 17 18 19 20 21 21 21 21 21 22 22 21 21 21 20 20 20 20 20 21 21 21 22 22 21 21
15 15 16 17 17 16 16 16 16 15 15 15 16 16 16 16 17 18 18 18 19 20 21 21 21 20 21 21 22 23 23 23 22 22 22 22 22 23 23 23 23 23 22
16 17 18 19 19 18 17 17 17 17 17 18 18 18 18 18 18 19 20 19 20 20 20 21 22 22 22 22 23 24 24 24 24 24 24 24 24 24 24 24 24 24 25
19 19 19 20 20 20 19 19 18 19 19 20 20 20 20 20 20 21 21 21 21 21 21 22 23 24 24 24 24 25 26 25 26 25 25 25 26 26 25 25 25 26 27
20 21 21 21 21 21 20 20 20 20 21 22 22 22 22 22 22 22 23 23 23 24 24 24 24 24 25 25 26 26 27 27 27 26 26 26 26 27 27 27 27 27 28
22 22 23 23 22 21 21 22 22 23 23 24 24 24 24 23 23 23 24 24 25 25 25 25 25 25 26 26 26 27 27 27 27 28 28 28 27 27 28 28 29 29 29
23 24 25 25 24 24 24 24 24 25 25 26 26 26 25 25 25 25 25 25 25 26 26 25 25 26 26 27 27 27 28 28 28 29 29 29 29 29 29 29 30 30 31
25 25 25 26 26 26 26 26 26 26 26 27 27 27 28 27 27 26 26 26 27 27 27 27 27 26 26 27 27 28 28 29 29 30 30 31 31 31 30 31 31 31 31
25 26 26 27 27 28 28 28 28 27 27 28 28 29 29 29 29 28 27 27 28 29 29 28 28 28 27 27 28 29 29 30 30 31 31 32 32 32 32 32 33 33 33
27 27 27 28 28 29 28 28 27 28 28 28 28 29 29 29 29 29 29 29 29 29 29 29 29 30 29 29 29 30 30 30 30 31 31 32 33 33 33 33 33 34 34
28 28 28 29 29 29 29 29 29 29 29 29 29 30 29 29 29 30 30 29 30 30 30 30 30 31 30 31 31 31 31 31 31 31 32 32 33 33 34 34 34 34 35
29 29 29 30 30 30 30 30 30 30 30 30 30 30 30 30 30 30 30 31 31 31 31 30 30 31 31 32 32 32 32 32 32 32 32 32 32 33 34 34 34 34 35
31 31 31 31 31 32 32 32 31 31 31 31 31 31 31 30 30 30 31 31 31 31 31 31 31 31 31 31 31 31 31 32 31 31 32 32 32 32 33 33 34 34 34
34 34 34 33 33 33 33 33 33 33 32 32 32 32 32 32 31 31 31 31 31 31 31 31 31 31 30 30 31 31 31 31 30 30 31 32 32 33 33 33 34 34 34
35 35 35 35 35 35 35 35 35 34 33 33 33 33 32 32 32 32 31 31 31 31 31 31 31 31 30 30 30 30 30 30 30 30 31 31 32 33 33 33 33 34 35
Wind_Direction
318 314 312 296 291 288 291 288 264 262 257 260 263 264 263 258 259 255 253 254 254 255 258 262 269 269 276 280 272 275 276 273 276 275 272 273 279 280 273 267 267 271 275
315 306 302 298 299 303 302 291 276 269 267 269 267 264 259 254 257 259 257 255 255 257 263 266 269 272 272 273 270 274 278 277 275 275 275 274 277 278 275 270 269 268 271
309 306 297 296 293 291 286 282 273 270 268 266 264 264 260 257 259 259 260 260 261 261 262 267 271 272 270 268 268 276 281 281 279 277 277 278 278 277 274 271 269 269 270
326 308 302 298 290 289 288 284 280 270 267 263 261 262 259 259 256 262 266 265 266 266 267 265 265 266 270 270 269 273 279 281 280 279 277 279 280 276 273 270 268 270 271
349 339 330 317 307 299 292 284 277 274 270 261 258 256 255 258 259 262 266 268 268 269 271 269 264 264 266 270 271 270 273 278 278 276 275 276 278 275 273 271 270 270 271
0 342 331 322 317 311 302 292 283 277 268 261 260 256 258 260 261 262 266 269 270 269 269 267 264 263 266 268 270 273 273 275 277 275 274 276 275 273 273 272 272 273 272
358 348 336 327 317 312 308 306 292 283 273 268 266 262 264 262 261 262 265 267 269 269 269 268 266 264 266 266 269 277 275 275 276 276 274 276 274 271 271 272 276 276 272
342 335 330 327 322 317 315 308 302 292 284 277 271 266 266 268 267 266 268 269 270 270 268 269 271 269 269 269 271 273 276 274 273 274 273 274 276 272 269 269 273 273 271
335 330 327 323 320 320 320 316 308 301 292 287 281 272 270 270 273 269 270 270 271 272 270 270 273 272 273 272 272 273 275 275 274 275 273 271 272 272 267 266 267 271 272
334 330 328 324 323 323 318 315 312 307 300 293 287 280 275 272 271 271 272 272 272 271 271 272 272 271 272 273 274 274 274 275 277 275 274 274 271 273 269 267 267 270 271
330 327 324 321 318 320 320 315 308 308 306 300 292 287 281 277 275 272 271 273 274 273 271 271 272 270 270 271 273 272 273 274 273 273 274 274 272 271 270 268 269 269 269
325 324 322 319 313 311 312 312 308 305 302 303 298 292 287 281 280 278 273 273 274 275 274 273 272 271 270 271 273 272 272 273 273 274 275 276 273 271 271 269 267 268 268
317 318 318 317 311 306 305 308 308 306 303 300 298 294 293 288 285 283 279 277 276 275 275 274 275 274 273 272 272 272 273 273 273 274 275 274 273 272 272 269 267 266 266
311 312 314 315 313 308 305 304 304 303 301 300 297 293 293 292 290 287 283 279 276 274 274 274 275 276 275 274 274 273 272 273 273 273 274 272 271 272 272 270 268 267 266
307 308 310 311 310 306 304 302 301 301 299 298 295 293 291 290 288 286 283 279 277 276 276 276 274 274 274 276 276 275 274 274 273 272 272 271 271 270 270 269 269 267 266
304 305 306 307 306 303 301 300 299 298 297 297 295 294 291 288 287 286 284 280 278 278 278 279 277 275 276 277 276 276 275 274 273 272 272 272 270 270 270 269 270 269 267
303 304 305 306 306 302 299 298 295 295 295 294 292 291 290 287 286 286 283 280 279 279 280 279 279 276 276 275 277 277 276 274 273 273 273 272 271 270 269 269 270 269 269
302 302 302 303 304 303 300 297 295 294 294 294 292 289 289 286 286 284 283 282 280 279 280 280 279 277 276 276 278 279 278 276 274 274 274 273 272 270 270 269 270 270 270
299 299 301 301 302 302 300 297 296 294 293 293 292 290 288 285 285 284 283 282 281 281 280 280 277 277 276 276 277 279 279 277 275 275 274 273 272 271 270 269 270 269 269
298 299 300 300 300 300 299 297 296 294 293 293 292 290 287 287 285 285 284 284 283 282 281 279 278 278 278 278 278 279 279 278 277 276 274 273 272 272 271 270 270 270 269
298 298 298 298 299 299 298 297 296 294 293 292 291 290 288 288 287 285 284 284 283 282 281 280 279 279 280 281 280 280 280 279 279 278 276 274 272 272 271 271 271 271 269
297 297 297 297 298 297 297 296 295 294 293 293 292 289 289 288 287 285 285 285 284 283 282 281 280 280 280 281 281 281 281 281 279 279 278 276 274 272 271 271 271 271 271
296 296 297 296 296 296 295 294 295 294 294 293 293 291 289 288 286 286 286 286 285 285 283 281 281 282 281 281 282 282 282 282 281 280 278 277 276 274 272 271 270 270 271
295 295 295 296 296 295 294 293 293 293 293 293 292 291 288 287 285 285 285 285 286 285 284 282 282 282 282 281 282 283 282 282 281 280 278 278 277 276 273 271 270 270 271
294 294 294 294 294 294 294 293 292 292 291 291 290 289 288 285 286 286 285 284 285 284 283 284 283 282 282 281 283 284 283 283 283 281 280 279 277 276 275 273 271 271 269
292 292 292 293 293 293 293 293 291 290 289 290 290 288 287 286 286 286 287 286 284 284 283 282 282 282 281 282 283 284 284 284 284 282 281 280 279 278 276 275 274 273 271
Height
5889 5889 5889 5889 5888 5888 5888 5887 5887 5887 5888 5888 5889 5889 5889 5890 5890 5890 5891 5891 5891 5891 5891 5891 5892 5892 5892 5892 5892 5892 5891 5891 5891 5891 5891 5891 5890 5890 5890 5890 5890 5890 5890
5889 5888 5888 5888 5888 5887 5887 5887 5887 5886 5886 5887 5887 5887 5887 5888 5888 5889 5889 5889 5890 5890 5890 5890 5890 5890 5890 5890 5890 5890 5889 5889 5889 5889 5889 5889 5889 5889 5889 5889 5889 5889 5889
5888 5888 5888 5887 5887 5887 5886 5886 5885 5885 5885 5885 5885 5886 5886 5886 5887 5887 5887 5888 5888 5888 5888 5888 5888 5888 5888 5888 5888 5888 5887 5888 5888 5888 5887 5887 5887 5887 5887 5887 5887 5887 5887
5887 5887 5886 5886 5885 5885 5885 5884 5884 5884 5884 5884 5884 5884 5884 5885 5885 5885 5886 5886 5886 5886 5886 5886 5886 5886 5886 5886 5886 5886 5886 5886 5885 5885 5885 5885 5885 5885 5885 5884 5884 5884 5884
5887 5886 5886 5885 5884 5884 5883 5883 5882 5882 5882 5882 5882 5882 5883 5883 5883 5883 5884 5884 5884 5883 5883 5883 5883 5883 5883 5883 5883 5883 5883 5883 5883 5883 5883 5882 5882 5882 5882 5882 5882 5882 5882
5886 5886 5885 5884 5883 5882 5882 5881 5880 5880 5879 5879 5879 5880 5880 5880 5881 5881 5881 5881 5881 5881 5880 5880 5880 5881 5880 5880 5881 5880 5880 5880 5880 5880 5880 5879 5879 5879 5879 5879 5879 5879 5879
5886 5885 5884 5883 5882 5881 5880 5879 5878 5877 5876 5876 5876 5877 5877 5877 5878 5878 5878 5878 5878 5877 5877 5877 5877 5877 5877 5877 5877 5877 5877 5876 5876 5876 5876 5876 5876 5876 5876 5876 5876 5876 5876
5886 5885 5883 5882 5881 5879 5878 5876 5875 5874 5874 5873 5873 5873 5874 5875 5874 5875 5874 5874 5874 5874 5874 5874 5874 5874 5874 5874 5874 5873 5873 5873 5872 5872 5872 5871 5872 5871 5871 5872 5872 5872 5872
5885 5884 5882 5881 5880 5878 5876 5874 5873 5872 5871 5871 5870 5871 5871 5871 5871 5871 5870 5871 5870 5870 5871 5871 5870 5870 5870 5870 5869 5869 5869 5868 5868 5868 5867 5867 5867 5867 5867 5867 5868 5868 5868
5884 5883 5881 5880 5878 5877 5875 5873 5871 5870 5869 5868 5867 5867 5868 5868 5868 5867 5867 5866 5866 5866 5866 5866 5866 5866 5865 5865 5865 5865 5864 5864 5864 5863 5863 5863 5863 5863 5863 5863 5863 5863 5864
5883 5881 5880 5878 5876 5875 5873 5871 5869 5868 5867 5866 5865 5864 5864 5864 5863 5863 5863 5862 5862 5861 5861 5861 5861 5861 5860 5860 5860 5860 5859 5859 5859 5859 5858 5858 5858 5858 5858 5858 5858 5858 5858
5881 5879 5878 5876 5874 5872 5871 5869 5867 5866 5864 5863 5862 5861 5860 5860 5859 5859 5859 5858 5857 5857 5856 5856 5856 5855 5855 5855 5855 5854 5854 5854 5854 5853 5853 5853 5852 5852 5852 5852 5852 5852 5853
5879 5877 5875 5873 5871 5870 5868 5867 5865 5864 5862 5861 5859 5858 5857 5856 5855 5854 5854 5853 5853 5852 5851 5851 5850 5850 5849 5849 5849 5848 5848 5848 5848 5848 5847 5847 5847 5846 5846 5846 5846 5847 5847
5876 5875 5873 5870 5868 5866 5865 5864 5862 5860 5859 5857 5855 5854 5852 5851 5850 5849 5848 5848 5847 5847 5846 5846 5845 5844 5843 5843 5843 5842 5842 5841 5841 5841 5841 5840 5840 5840 5840 5840 5840 5840 5841
5872 5871 5869 5867 5865 5863 5861 5859 5858 5856 5854 5853 5851 5849 5847 5846 5845 5844 5843 5842 5842 5841 5841 5840 5839 5838 5837 5836 5836 5835 5835 5834 5834 5834 5834 5833 5833 5833 5833 5833 5833 5833 5834
5868 5866 5865 5863 5861 5858 5857 5855 5853 5852 5850 5848 5846 5844 5842 5840 5839 5838 5836 5836 5835 5835 5834 5833 5832 5831 5830 5829 5829 5828 5827 5827 5826 5826 5826 5825 5825 5825 5825 5825 5825 5826 5826
5863 5862 5860 5858 5856 5854 5852 5850 5848 5846 5844 5842 5840 5838 5836 5834 5833 5831 5830 5829 5828 5827 5827 5826 5825 5824 5823 5822 5821 5821 5820 5819 5819 5818 5818 5817 5817 5817 5817 5817 5817 5818 5818
5858 5856 5854 5852 5850 5848 5846 5844 5842 5840 5838 5836 5833 5831 5829 5827 5826 5824 5823 5822 5821 5820 5819 5819 5818 5816 5815 5814 5814 5813 5812 5811 5810 5810 5810 5809 5809 5809 5809 5809 5809 5809 5809
5852 5851 5849 5846 5844 5842 5840 5838 5835 5833 5831 5829 5826 5824 5822 5820 5819 5817 5816 5814 5813 5813 5812 5811 5810 5809 5808 5807 5806 5805 5804 5803 5802 5801 5801 5801 5800 5800 5800 5800 5800 5800 5801
5846 5844 5842 5840 5838 5835 5833 5831 5828 5826 5824 5821 5819 5817 5815 5813 5811 5810 5808 5807 5806 5805 5804 5803 5802 5801 5800 5799 5798 5797 5796 5794 5793 5793 5792 5791 5791 5791 5791 5791 5791 5791 5791
5839 5837 5835 5833 5831 5828 5826 5823 5821 5819 5816 5814 5811 5809 5807 5805 5803 5802 5801 5799 5798 5797 5795 5794 5794 5793 5792 5790 5789 5788 5787 5785 5784 5783 5783 5782 5782 5781 5781 5781 5781 5781 5781
5832 5830 5828 5826 5823 5821 5819 5816 5813 5811 5809 5806 5804 5802 5799 5798 5796 5794 5793 5791 5790 5788 5787 5786 5785 5784 5783 5781 5780 5779 5778 5776 5775 5775 5773 5773 5772 5772 5771 5771 5771 5771 5771
5825 5823 5821 5818 5816 5813 5811 5808 5806 5803 5801 5798 5796 5794 5792 5790 5788 5786 5784 5783 5781 5779 5778 5777 5775 5774 5773 5772 5771 5769 5768 5767 5766 5765 5763 5763 5762 5762 5762 5761 5761 5761 5761
5818 5815 5813 5811 5808 5805 5802 5800 5797 5794 5792 5790 5787 5785 5783 5781 5778 5777 5775 5774 5772 5770 5769 5767 5766 5765 5764 5762 5761 5760 5758 5757 5756 5755 5754 5753 5753 5752 5752 5751 5751 5751 5751
5809 5806 5804 5802 5799 5796 5793 5790 5788 5785 5783 5781 5778 5775 5773 5771 5769 5767 5766 5764 5762 5761 5759 5758 5756 5755 5754 5753 5751 5750 5749 5748 5747 5746 5744 5744 5743 5742 5742 5741 5741 5740 5740
5799 5796 5794 5792 5789 5787 5784 5780 5778 5775 5773 5771 5768 5766 5763 5761 5760 5758 5756 5754 5753 5751 5750 5748 5747 5746 5745 5743 5742 5741 5740 5738 5737 5737 5735 5734 5733 5732 5732 5732 5731 5730 5730